Voltar ao catálogo

FENGYUN 1C DEB

AtivoSSO
NORAD 29836·DEBRIS·🇨🇳 China

Lançado May 10, 1999 de Taiyuan Satellite Launch Center

Loading…

Próximas Passagens (próximas 24 horas)

TLE

AtualizadoSource: Space-Track

Época: Sep 14, 2026, 18:10 UTC

1 29836U 99025EE  26257.75749516  .00001082  00000-0  22383-3 0  9991
2 29836  98.1874 353.0404 0153317  68.8240  80.9317 14.55196615675687

Acompanhe FENGYUN 1C DEB em tempo real com AllMySat

Download on the App Store